Starlink 32492

operational
NORAD ID: 62050 Int'l Des: 2024-216 Owner: SPXS Country: US Constellation: starlink
LEOCIRCULAR

Starlink 32492について

説明を読み込み中...

リアルタイム位置

3D地球を読み込み中...

次回通過

高度履歴

Altitude vs Time

uPlot chart will show altitude changes over time

軌道要素

1 62050U 24216U 25307.54884074 .00015064 00000-0 55545-3 0 9998
2 62050 42.9985 255.6521 0000756 271.7112 88.3653 15.27602355 54500
Epoch: Nov 3, 2025 • Age: 17 hours

現在のステータス

高度 495.7 km
速度 7.62 km/s
衛星直下点 -43.13°S, 24.94°E
打ち上げ日 Nov 21, 2024
運用期間 0.9 years
タイプ internet

技術仕様

分類 Payload
質量 730.00 kg
乾燥質量 700.00 kg
総質量 730.00 kg
長さ 0.30 m
直径 4.10 m
スパン 29.00 m
形状 Box + pan
製造者 SPXS
バスタイプ Starlink V2M
フェーズステータス In Orbit
所有者/国 SPXS/US

大規模コンステレーション

Loading constellations...